| time (UTC) | temp F | wind direction | speed knots | gust knots | rain 1hr in | rain 24hr in | rain mn in | humidity % | barometer mb |
| 20260507140657 | 71 | 245 | 1.7 | 5.2 | 0.00 | 0.00 | 0.00 | 63 | 1017.8 |
| 20260507140155 | 71 | 274 | 1.7 | 7.0 | 0.00 | 0.00 | 0.00 | 62 | 1017.7 |
| 20260507135652 | 71 | 344 | 2.6 | 7.8 | 0.00 | 0.00 | 0.00 | 61 | 1018.0 |
| 20260507135149 | 71 | 313 | 4.3 | 6.1 | 0.00 | 0.00 | 0.00 | 60 | 1018.0 |
| 20260507134645 | 71 | 336 | 2.6 | 6.1 | 0.00 | 0.00 | 0.00 | 61 | 1017.9 |
| 20260507134141 | 72 | 301 | 3.5 | 8.7 | 0.00 | 0.00 | 0.00 | 61 | 1017.7 |
| 20260507133637 | 72 | 11 | 2.6 | 7.0 | 0.00 | 0.00 | 0.00 | 60 | 1017.9 |
| 20260507133135 | 72 | 322 | 2.6 | 5.2 | 0.00 | 0.00 | 0.00 | 62 | 1018.0 |
| 20260507132632 | 72 | 339 | 5.2 | 7.8 | 0.00 | 0.00 | 0.00 | 59 | 1018.0 |
| 20260507132128 | 72 | 316 | 1.7 | 5.2 | 0.00 | 0.00 | 0.00 | 60 | 1018.0 |
| 20260507131625 | 72 | 329 | 2.6 | 10.4 | 0.00 | 0.00 | 0.00 | 59 | 1018.0 |
| 20260507131123 | 73 | 316 | 0.0 | 4.3 | 0.00 | 0.00 | 0.00 | 59 | 1018.1 |
| 20260507130619 | 72 | 287 | 1.7 | 7.0 | 0.00 | 0.00 | 0.00 | 60 | 1017.9 |
| 20260507130117 | 72 | 298 | 3.5 | 9.6 | 0.00 | 0.00 | 0.00 | 56 | 1017.8 |
| 20260507125616 | 73 | 329 | 2.6 | 8.7 | 0.00 | 0.00 | 0.00 | 57 | 1017.9 |
| 20260507125113 | 73 | 317 | 1.7 | 8.7 | 0.00 | 0.00 | 0.00 | 59 | 1018.0 |
| 20260507124609 | 73 | 315 | 2.6 | 8.7 | 0.00 | 0.00 | 0.00 | 57 | 1017.9 |
| 20260507124107 | 74 | 311 | 0.9 | 6.1 | 0.00 | 0.00 | 0.00 | 58 | 1018.0 |
| 20260507123605 | 75 | 330 | 0.9 | 5.2 | 0.00 | 0.00 | 0.00 | 56 | 1017.9 |
| 20260507123101 | 74 | 319 | 3.5 | 7.0 | 0.00 | 0.00 | 0.00 | 57 | 1017.9 |
| 20260507122556 | 74 | 278 | 2.6 | 5.2 | 0.00 | 0.00 | 0.00 | 58 | 1018.0 |
| 20260507122053 | 74 | 332 | 4.3 | 7.0 | 0.00 | 0.00 | 0.00 | 56 | 1018.0 |
| 20260507121549 | 74 | 343 | 2.6 | 5.2 | 0.00 | 0.00 | 0.00 | 57 | 1018.0 |
| 20260507121045 | 73 | 332 | 5.2 | 5.2 | 0.00 | 0.00 | 0.00 | 59 | 1018.2 |
| 20260507120541 | 74 | 327 | 2.6 | 5.2 | 0.00 | 0.00 | 0.00 | 58 | 1018.0 |
| 20260507120038 | 74 | 302 | 2.6 | 5.2 | 0.00 | 0.00 | 0.00 | 58 | 1017.9 |
| 20260507115534 | 73 | 303 | 2.6 | 11.3 | 0.00 | 0.00 | 0.00 | 59 | 1018.0 |
| 20260507115030 | 74 | 325 | 2.6 | 7.0 | 0.00 | 0.00 | 0.00 | 58 | 1017.9 |
| 20260507114526 | 73 | 327 | 2.6 | 7.8 | 0.00 | 0.00 | 0.00 | 60 | 1018.0 |
| 20260507114024 | 73 | 330 | 4.3 | 7.8 | 0.00 | 0.00 | 0.00 | 60 | 1018.0 |
| 20260507113521 | 73 | 356 | 1.7 | 12.2 | 0.00 | 0.00 | 0.00 | 60 | 1018.2 |
| 20260507113018 | 74 | 338 | 2.6 | 6.1 | 0.00 | 0.00 | 0.00 | 58 | 1018.0 |
| 20260507112516 | 73 | 100 | 2.6 | 10.4 | 0.00 | 0.00 | 0.00 | 60 | 1018.1 |
| 20260507112012 | 74 | 329 | 4.3 | 6.1 | 0.00 | 0.00 | 0.00 | 59 | 1018.2 |
| 20260507111510 | 75 | 347 | 2.6 | 5.2 | 0.00 | 0.00 | 0.00 | 58 | 1018.1 |
| 20260507111005 | 75 | 302 | 2.6 | 5.2 | 0.00 | 0.00 | 0.00 | 57 | 1018.5 |
| 20260507110502 | 75 | 307 | 3.5 | 5.2 | 0.00 | 0.00 | 0.00 | 57 | 1018.6 |
| 20260507105958 | 74 | 278 | 1.7 | 7.8 | 0.00 | 0.00 | 0.00 | 59 | 1018.6 |
| 20260507105455 | 75 | 348 | 2.6 | 4.3 | 0.00 | 0.00 | 0.00 | 58 | 1018.5 |
| 20260507104952 | 76 | 268 | 3.5 | 8.7 | 0.00 | 0.00 | 0.00 | 57 | 1018.3 |
| 20260507104449 | 74 | 351 | 3.5 | 7.0 | 0.00 | 0.00 | 0.00 | 60 | 1018.1 |
| 20260507103944 | 74 | 327 | 3.5 | 7.0 | 0.00 | 0.00 | 0.00 | 59 | 1018.2 |
| 20260507103442 | 75 | 282 | 1.7 | 5.2 | 0.00 | 0.00 | 0.00 | 58 | 1018.5 |
| 20260507102937 | 75 | 287 | 1.7 | 8.7 | 0.00 | 0.00 | 0.00 | 58 | 1018.3 |
| 20260507102435 | 75 | 21 | 0.9 | 8.7 | 0.00 | 0.00 | 0.00 | 59 | 1018.6 |
| 20260507101931 | 75 | 208 | 1.7 | 8.7 | 0.00 | 0.00 | 0.00 | 58 | 1018.3 |
| 20260507101426 | 75 | 266 | 3.5 | 3.5 | 0.00 | 0.00 | 0.00 | 58 | 1018.5 |
| 20260507100923 | 74 | 237 | 2.6 | 7.0 | 0.00 | 0.00 | 0.00 | 58 | 1018.6 |
| 20260507100420 | 74 | 30 | 0.9 | 5.2 | 0.00 | 0.00 | 0.00 | 59 | 1018.5 |
| 20260507095918 | 74 | 267 | 2.6 | 11.3 | 0.00 | 0.00 | 0.00 | 58 | 1018.5 |
| 20260507095415 | 75 | 340 | 1.7 | 7.8 | 0.00 | 0.00 | 0.00 | 57 | 1018.7 |
| 20260507063007 | 70 | 320 | 1.7 | 4.3 | 0.00 | 0.00 | 0.00 | 54 | 1019.9 |
| 20260507062504 | 70 | 320 | 1.7 | 4.3 | 0.00 | 0.00 | 0.00 | 54 | 1019.9 |
| 20260507062001 | 70 | 339 | 1.7 | 5.2 | 0.00 | 0.00 | 0.00 | 56 | 1019.9 |
| 20260507061459 | 70 | 286 | 1.7 | 4.3 | 0.00 | 0.00 | 0.00 | 55 | 1019.8 |
| 20260507060957 | 70 | 82 | 1.7 | 5.2 | 0.00 | 0.00 | 0.00 | 55 | 1019.8 |
| 20260507060454 | 68 | 306 | 0.0 | 3.5 | 0.00 | 0.00 | 0.00 | 59 | 1020.0 |
| 20260507055950 | 68 | 330 | 1.7 | 1.7 | 0.00 | 0.00 | 0.00 | 60 | 1020.0 |
| 20260507055445 | 68 | 340 | 1.7 | 3.5 | 0.00 | 0.00 | 0.00 | 60 | 1020.0 |
| 20260507054943 | 67 | 335 | 2.6 | 3.5 | 0.00 | 0.00 | 0.00 | 61 | 1020.0 |
| 20260507054438 | 68 | 308 | 1.7 | 2.6 | 0.00 | 0.00 | 0.00 | 60 | 1020.1 |
| 20260507053936 | 67 | 11 | 1.7 | 3.5 | 0.00 | 0.00 | 0.00 | 61 | 1020.1 |
| 20260507053433 | 67 | 344 | 0.0 | 2.6 | 0.00 | 0.00 | 0.00 | 62 | 1019.9 |
| 20260507052932 | 66 | 321 | 2.6 | 5.2 | 0.00 | 0.00 | 0.00 | 62 | 1019.9 |
| 20260507052429 | 66 | 323 | 1.7 | 3.5 | 0.00 | 0.00 | 0.00 | 62 | 1019.9 |
| 20260507051926 | 66 | 325 | 0.9 | 3.5 | 0.00 | 0.00 | 0.00 | 62 | 1019.9 |
| 20260507051424 | 66 | 320 | 2.6 | 4.3 | 0.00 | 0.00 | 0.00 | 63 | 1020.0 |
| 20260507050920 | 65 | 313 | 0.9 | 3.5 | 0.00 | 0.00 | 0.00 | 65 | 1019.8 |
| 20260507050417 | 65 | 358 | 1.7 | 3.5 | 0.00 | 0.00 | 0.00 | 65 | 1019.7 |
| 20260507045914 | 65 | 318 | 2.6 | 2.6 | 0.00 | 0.00 | 0.00 | 66 | 1019.9 |
| 20260507045410 | 64 | 319 | 2.6 | 2.6 | 0.00 | 0.00 | 0.00 | 66 | 1020.0 |
| 20260507044903 | 65 | 290 | 0.0 | 1.7 | 0.00 | 0.00 | 0.00 | 66 | 1019.8 |
| 20260507044359 | 65 | 55 | 0.0 | 1.7 | 0.00 | 0.00 | 0.00 | 66 | 1020.1 |
| 20260507043855 | 64 | 319 | 1.7 | 1.7 | 0.00 | 0.00 | 0.00 | 68 | 1019.9 |
| 20260507043352 | 63 | 356 | 1.7 | 3.5 | 0.00 | 0.00 | 0.00 | 67 | 1019.8 |
| 20260507042848 | 62 | 74 | 1.7 | 3.5 | 0.00 | 0.00 | 0.00 | 69 | 1019.8 |
| 20260507042344 | 62 | 310 | 1.7 | 2.6 | 0.00 | 0.00 | 0.00 | 69 | 1019.7 |
| 20260507041841 | 62 | 309 | 0.9 | 3.5 | 0.00 | 0.00 | 0.00 | 70 | 1019.8 |
| 20260507041337 | 62 | 302 | 0.9 | 2.6 | 0.00 | 0.00 | 0.00 | 70 | 1019.7 |
| 20260507040835 | 62 | 0 | 0.9 | 2.6 | 0.00 | 0.00 | 0.00 | 69 | 1019.9 |
| 20260507040331 | 62 | 357 | 0.0 | 1.7 | 0.00 | 0.00 | 0.00 | 69 | 1019.6 |
| 20260507035827 | 62 | 313 | 1.7 | 1.7 | 0.00 | 0.00 | 0.00 | 70 | 1019.6 |
| 20260507035322 | 62 | 326 | 0.0 | 1.7 | 0.00 | 0.00 | 0.00 | 69 | 1019.6 |
| 20260507034820 | 62 | 352 | 1.7 | 2.6 | 0.00 | 0.00 | 0.00 | 69 | 1019.5 |
| 20260507034317 | 62 | 354 | 0.9 | 1.7 | 0.00 | 0.00 | 0.00 | 70 | 1019.3 |
| 20260507033815 | 60 | 6 | 0.0 | 1.7 | 0.00 | 0.00 | 0.00 | 72 | 1019.4 |
| 20260507033313 | 60 | 26 | 0.0 | 1.7 | 0.00 | 0.00 | 0.00 | 73 | 1019.2 |
| 20260507032809 | 59 | 314 | 0.9 | 1.7 | 0.00 | 0.00 | 0.00 | 76 | 1019.3 |
| 20260507032306 | 58 | 320 | 0.9 | 1.7 | 0.00 | 0.00 | 0.00 | 78 | 1019.4 |
| 20260507031802 | 56 | 312 | 0.9 | 1.7 | 0.00 | 0.00 | 0.00 | 81 | 1019.3 |
| 20260507031259 | 55 | 285 | 0.0 | 1.7 | 0.00 | 0.00 | 0.00 | 82 | 1019.2 |
| 20260507030755 | 55 | 311 | 0.9 | 1.7 | 0.00 | 0.00 | 0.00 | 82 | 1019.1 |
| 20260507030253 | 55 | 328 | 1.7 | 1.7 | 0.00 | 0.00 | 0.00 | 82 | 1018.9 |
| 20260507025750 | 55 | 325 | 1.7 | 1.7 | 0.00 | 0.00 | 0.00 | 82 | 1018.9 |
| 20260507025247 | 55 | 330 | 0.0 | 1.7 | 0.00 | 0.00 | 0.00 | 82 | 1018.9 |
| 20260507024745 | 55 | 318 | 1.7 | 1.7 | 0.00 | 0.00 | 0.00 | 81 | 1018.8 |
| 20260507024242 | 55 | 323 | 1.7 | 1.7 | 0.00 | 0.00 | 0.00 | 81 | 1018.6 |
| 20260507023738 | 55 | 299 | 1.7 | 1.7 | 0.00 | 0.00 | 0.00 | 81 | 1019.0 |
| 20260507023235 | 55 | 4 | 0.0 | 1.7 | 0.00 | 0.00 | 0.00 | 81 | 1018.9 |
| 20260507022732 | 55 | 321 | 0.9 | 1.7 | 0.00 | 0.00 | 0.00 | 82 | 1018.8 |
| 20260507022228 | 55 | 330 | 0.9 | 1.7 | 0.00 | 0.00 | 0.00 | 82 | 1018.7 |
| 20260507021724 | 55 | 289 | 0.9 | 1.7 | 0.00 | 0.00 | 0.00 | 82 | 1018.8 |
| 20260507021220 | 55 | 317 | 0.0 | 2.6 | 0.00 | 0.00 | 0.00 | 81 | 1018.9 |
| 20260507020719 | 55 | 308 | 0.9 | 1.7 | 0.00 | 0.00 | 0.00 | 81 | 1018.7 |
| 20260507020214 | 55 | 308 | 0.9 | 1.7 | 0.00 | 0.00 | 0.00 | 81 | 1018.7 |
| 20260507015712 | 55 | 334 | 0.9 | 1.7 | 0.00 | 0.00 | 0.00 | 81 | 1018.7 |
| 20260507015209 | 55 | 310 | 1.7 | 1.7 | 0.00 | 0.00 | 0.00 | 80 | 1018.6 |
| 20260507014706 | 56 | 292 | 1.7 | 1.7 | 0.00 | 0.00 | 0.00 | 80 | 1018.7 |
| 20260507014202 | 56 | 309 | 1.7 | 1.7 | 0.00 | 0.00 | 0.00 | 80 | 1018.8 |
| 20260507013659 | 56 | 306 | 0.0 | 1.7 | 0.00 | 0.00 | 0.00 | 80 | 1018.8 |
| 20260507013157 | 56 | 306 | 1.7 | 1.7 | 0.00 | 0.00 | 0.00 | 80 | 1018.8 |
| 20260507012654 | 56 | 231 | 0.0 | 1.7 | 0.00 | 0.00 | 0.00 | 79 | 1018.6 |
| 20260507012149 | 56 | 21 | 0.0 | 1.7 | 0.00 | 0.00 | 0.00 | 80 | 1018.6 |
| 20260507011647 | 56 | 359 | 0.0 | 1.7 | 0.00 | 0.00 | 0.00 | 80 | 1018.7 |
| 20260507011143 | 56 | 26 | 0.0 | 1.7 | 0.00 | 0.00 | 0.00 | 81 | 1018.7 |
| 20260507010638 | 55 | 9 | 0.9 | 1.7 | 0.00 | 0.00 | 0.00 | 81 | 1018.7 |
| 20260507010134 | 55 | 319 | 0.9 | 1.7 | 0.00 | 0.00 | 0.00 | 81 | 1018.6 |
| 20260507005632 | 55 | 316 | 1.7 | 1.7 | 0.00 | 0.00 | 0.00 | 81 | 1018.6 |
| 20260507005128 | 55 | 29 | 1.7 | 1.7 | 0.00 | 0.00 | 0.00 | 81 | 1018.8 |
| 20260507004625 | 55 | 335 | 1.7 | 1.7 | 0.00 | 0.00 | 0.00 | 81 | 1018.7 |
| 20260507004122 | 55 | 329 | 1.7 | 2.6 | 0.00 | 0.00 | 0.00 | 81 | 1018.8 |
| 20260507003618 | 55 | 330 | 0.9 | 1.7 | 0.00 | 0.00 | 0.00 | 81 | 1019.0 |
| 20260507003113 | 55 | 310 | 1.7 | 1.7 | 0.00 | 0.00 | 0.00 | 81 | 1018.8 |
| 20260507002610 | 55 | 332 | 0.9 | 2.6 | 0.00 | 0.00 | 0.00 | 81 | 1018.8 |
| 20260507002106 | 55 | 323 | 1.7 | 1.7 | 0.00 | 0.00 | 0.00 | 81 | 1018.8 |
| 20260507001603 | 55 | 323 | 1.7 | 1.7 | 0.00 | 0.00 | 0.00 | 81 | 1018.9 |
| 20260507001101 | 56 | 316 | 1.7 | 1.7 | 0.00 | 0.00 | 0.00 | 80 | 1018.9 |
| 20260507000556 | 56 | 294 | 0.9 | 1.7 | 0.00 | 0.00 | 0.00 | 80 | 1018.7 |
| 20260507000052 | 56 | 297 | 1.7 | 2.6 | 0.00 | 0.00 | 0.00 | 79 | 1018.8 |
| 20260506235549 | 56 | 323 | 2.6 | 2.6 | 0.00 | 0.00 | 0.00 | 79 | 1018.9 |
| 20260506235044 | 57 | 350 | 1.7 | 1.7 | 0.00 | 0.00 | 0.00 | 78 | 1018.8 |
| 20260506234542 | 57 | 305 | 1.7 | 1.7 | 0.00 | 0.00 | 0.00 | 78 | 1019.0 |
| 20260506234039 | 57 | 332 | 1.7 | 1.7 | 0.00 | 0.00 | 0.00 | 78 | 1018.9 |
| 20260506233536 | 57 | 11 | 0.0 | 1.7 | 0.00 | 0.00 | 0.00 | 78 | 1019.0 |
| 20260506233033 | 57 | 321 | 0.9 | 2.6 | 0.00 | 0.00 | 0.00 | 78 | 1019.0 |
| 20260506232529 | 57 | 343 | 1.7 | 1.7 | 0.00 | 0.00 | 0.00 | 78 | 1019.0 |
| 20260506232024 | 57 | 329 | 0.0 | 1.7 | 0.00 | 0.00 | 0.00 | 78 | 1018.9 |
| 20260506231522 | 58 | 314 | 1.7 | 1.7 | 0.00 | 0.00 | 0.00 | 77 | 1018.9 |
| 20260506231020 | 58 | 22 | 1.7 | 1.7 | 0.00 | 0.00 | 0.00 | 77 | 1019.0 |
| 20260506230516 | 58 | 339 | 1.7 | 2.6 | 0.00 | 0.00 | 0.00 | 76 | 1019.1 |
| 20260506230014 | 58 | 0 | 0.9 | 2.6 | 0.00 | 0.00 | 0.00 | 76 | 1019.0 |
| 20260506225510 | 58 | 292 | 0.9 | 1.7 | 0.00 | 0.00 | 0.00 | 77 | 1019.2 |
| 20260506225006 | 58 | 0 | 1.7 | 1.7 | 0.00 | 0.00 | 0.00 | 77 | 1019.0 |
| 20260506224503 | 58 | 16 | 1.7 | 1.7 | 0.00 | 0.00 | 0.00 | 77 | 1019.2 |
| 20260506224000 | 58 | 303 | 1.7 | 1.7 | 0.00 | 0.00 | 0.00 | 77 | 1019.0 |
| 20260506223456 | 58 | 346 | 1.7 | 1.7 | 0.00 | 0.00 | 0.00 | 76 | 1019.1 |
| 20260506222953 | 59 | 313 | 1.7 | 1.7 | 0.00 | 0.00 | 0.00 | 76 | 1019.1 |
| 20260506222449 | 59 | 358 | 0.9 | 2.6 | 0.00 | 0.00 | 0.00 | 76 | 1019.4 |
| 20260506221946 | 59 | 354 | 0.9 | 3.5 | 0.00 | 0.00 | 0.00 | 76 | 1019.2 |
| 20260506221443 | 58 | 28 | 0.9 | 1.7 | 0.00 | 0.00 | 0.00 | 77 | 1019.3 |
| 20260506220936 | 58 | 311 | 0.9 | 1.7 | 0.00 | 0.00 | 0.00 | 77 | 1019.4 |
| 20260506220431 | 59 | 309 | 0.0 | 1.7 | 0.00 | 0.00 | 0.00 | 76 | 1019.2 |
| 20260506215928 | 59 | 310 | 0.0 | 1.7 | 0.00 | 0.00 | 0.00 | 76 | 1019.4 |
| 20260506215424 | 59 | 340 | 0.9 | 1.7 | 0.00 | 0.00 | 0.00 | 76 | 1019.6 |
| 20260506214920 | 59 | 329 | 0.0 | 1.7 | 0.00 | 0.00 | 0.00 | 75 | 1019.5 |
| 20260506214417 | 59 | 302 | 0.9 | 1.7 | 0.00 | 0.00 | 0.00 | 75 | 1019.5 |
| 20260506213915 | 60 | 297 | 0.9 | 1.7 | 0.00 | 0.00 | 0.00 | 74 | 1019.6 |
| 20260506213412 | 60 | 353 | 0.9 | 1.7 | 0.00 | 0.00 | 0.00 | 74 | 1019.5 |
| 20260506212910 | 60 | 322 | 0.0 | 1.7 | 0.00 | 0.00 | 0.00 | 74 | 1019.5 |
| 20260506212405 | 60 | 322 | 0.0 | 1.7 | 0.00 | 0.00 | 0.00 | 74 | 1019.5 |
| 20260506211900 | 60 | 324 | 0.0 | 0.9 | 0.00 | 0.00 | 0.00 | 74 | 1019.7 |
| 20260506211356 | 60 | 10 | 0.9 | 1.7 | 0.00 | 0.00 | 0.00 | 74 | 1019.7 |
| 20260506210854 | 60 | 292 | 0.0 | 0.9 | 0.00 | 0.00 | 0.00 | 74 | 1019.7 |
| 20260506210350 | 59 | 315 | 0.0 | 1.7 | 0.00 | 0.00 | 0.00 | 75 | 1019.7 |
| 20260506205848 | 59 | 313 | 0.0 | 0.9 | 0.00 | 0.00 | 0.00 | 75 | 1019.7 |
| 20260506205344 | 59 | 269 | 0.0 | 0.9 | 0.00 | 0.00 | 0.00 | 75 | 1019.7 |
| 20260506204840 | 60 | 315 | 1.7 | 1.7 | 0.00 | 0.00 | 0.00 | 75 | 1020.0 |
| 20260506204338 | 60 | 314 | 0.9 | 1.7 | 0.00 | 0.00 | 0.00 | 75 | 1019.7 |
| 20260506203835 | 60 | 323 | 0.9 | 1.7 | 0.00 | 0.00 | 0.00 | 74 | 1019.9 |
| 20260506203332 | 60 | 309 | 0.0 | 1.7 | 0.00 | 0.00 | 0.00 | 74 | 1019.7 |
| 20260506202829 | 60 | 321 | 0.0 | 1.7 | 0.00 | 0.00 | 0.00 | 74 | 1019.7 |
| 20260506202326 | 60 | 314 | 0.9 | 1.7 | 0.00 | 0.00 | 0.00 | 73 | 1019.8 |
| 20260506201823 | 60 | 322 | 0.0 | 1.7 | 0.00 | 0.00 | 0.00 | 73 | 1019.9 |
| 20260506201320 | 60 | 322 | 1.7 | 1.7 | 0.00 | 0.00 | 0.00 | 73 | 1019.9 |
| 20260506200817 | 61 | 320 | 0.9 | 1.7 | 0.00 | 0.00 | 0.00 | 73 | 1019.9 |
| 20260506200313 | 61 | 304 | 0.9 | 1.7 | 0.00 | 0.00 | 0.00 | 73 | 1019.8 |
| 20260506195809 | 61 | 319 | 1.7 | 1.7 | 0.00 | 0.00 | 0.00 | 73 | 1019.9 |
| 20260506195306 | 61 | 307 | 1.7 | 1.7 | 0.00 | 0.00 | 0.00 | 73 | 1020.0 |
| 20260506194804 | 61 | 317 | 0.9 | 1.7 | 0.00 | 0.00 | 0.00 | 73 | 1019.7 |
| 20260506194300 | 61 | 294 | 0.9 | 1.7 | 0.00 | 0.00 | 0.00 | 72 | 1019.9 |
| 20260506193758 | 61 | 313 | 0.9 | 1.7 | 0.00 | 0.00 | 0.00 | 72 | 1019.8 |
| 20260506193254 | 61 | 300 | 0.9 | 1.7 | 0.00 | 0.00 | 0.00 | 73 | 1019.8 |
| 20260506192750 | 61 | 316 | 1.7 | 1.7 | 0.00 | 0.00 | 0.00 | 72 | 1019.7 |
| 20260506192248 | 61 | 306 | 0.9 | 1.7 | 0.00 | 0.00 | 0.00 | 72 | 1019.8 |
| 20260506191744 | 61 | 297 | 0.9 | 0.9 | 0.00 | 0.00 | 0.00 | 72 | 1019.8 |
| 20260506191240 | 61 | 294 | 0.9 | 0.9 | 0.00 | 0.00 | 0.00 | 72 | 1019.8 |
| 20260506190738 | 61 | 289 | 1.7 | 1.7 | 0.00 | 0.00 | 0.00 | 72 | 1019.9 |
| 20260506190234 | 61 | 289 | 0.9 | 1.7 | 0.00 | 0.00 | 0.00 | 72 | 1019.8 |
| 20260506185731 | 61 | 274 | 0.9 | 0.9 | 0.00 | 0.00 | 0.00 | 72 | 1019.9 |
| 20260506185228 | 61 | 295 | 0.9 | 1.7 | 0.00 | 0.00 | 0.00 | 72 | 1019.7 |
| 20260506184725 | 61 | 269 | 0.0 | 0.9 | 0.00 | 0.00 | 0.00 | 72 | 1019.8 |
| 20260506184222 | 61 | 290 | 0.9 | 1.7 | 0.00 | 0.00 | 0.00 | 72 | 1019.8 |
| 20260506183719 | 61 | 286 | 0.9 | 1.7 | 0.00 | 0.00 | 0.00 | 72 | 1019.8 |
| 20260506183215 | 61 | 299 | 0.0 | 1.7 | 0.00 | 0.00 | 0.00 | 72 | 1019.7 |
| 20260506182712 | 61 | 291 | 0.9 | 1.7 | 0.00 | 0.00 | 0.00 | 71 | 1019.6 |
| 20260506182209 | 62 | 285 | 0.9 | 1.7 | 0.00 | 0.00 | 0.00 | 71 | 1019.5 |
| 20260506181707 | 61 | 283 | 1.7 | 1.7 | 0.00 | 0.00 | 0.00 | 72 | 1019.6 |
| 20260506181204 | 61 | 293 | 0.9 | 1.7 | 0.00 | 0.00 | 0.00 | 72 | 1019.4 |
| 20260506180701 | 62 | 291 | 0.9 | 1.7 | 0.00 | 0.00 | 0.00 | 71 | 1019.4 |
| 20260506180157 | 62 | 300 | 0.9 | 2.6 | 0.00 | 0.00 | 0.00 | 71 | 1019.3 |
| 20260506175654 | 62 | 274 | 1.7 | 1.7 | 0.00 | 0.00 | 0.00 | 71 | 1019.2 |
| 20260506175150 | 62 | 294 | 1.7 | 2.6 | 0.00 | 0.00 | 0.00 | 71 | 1019.2 |
| 20260506174648 | 62 | 288 | 1.7 | 1.7 | 0.00 | 0.00 | 0.00 | 70 | 1019.3 |
| 20260506174144 | 62 | 274 | 0.0 | 2.6 | 0.00 | 0.00 | 0.00 | 70 | 1019.2 |
| 20260506173643 | 62 | 301 | 1.7 | 2.6 | 0.00 | 0.00 | 0.00 | 70 | 1019.3 |
| 20260506173134 | 62 | 303 | 0.0 | 1.7 | 0.00 | 0.00 | 0.00 | 70 | 1019.1 |
| 20260506172631 | 62 | 301 | 0.0 | 1.7 | 0.00 | 0.00 | 0.00 | 70 | 1019.1 |
| 20260506172127 | 62 | 278 | 0.9 | 2.6 | 0.00 | 0.00 | 0.00 | 70 | 1019.1 |
| 20260506171625 | 62 | 327 | 1.7 | 2.6 | 0.00 | 0.00 | 0.00 | 70 | 1019.0 |
| 20260506171122 | 62 | 302 | 1.7 | 1.7 | 0.00 | 0.00 | 0.00 | 70 | 1019.0 |
| 20260506170619 | 62 | 300 | 1.7 | 2.6 | 0.00 | 0.00 | 0.00 | 69 | 1019.1 |
| 20260506170116 | 63 | 291 | 0.9 | 1.7 | 0.00 | 0.00 | 0.00 | 69 | 1019.0 |
| 20260506165615 | 63 | 341 | 0.0 | 1.7 | 0.00 | 0.00 | 0.00 | 68 | 1019.0 |
| 20260506165111 | 63 | 298 | 0.0 | 2.6 | 0.00 | 0.00 | 0.00 | 68 | 1018.9 |
| 20260506164608 | 63 | 318 | 1.7 | 2.6 | 0.00 | 0.00 | 0.00 | 67 | 1018.7 |
| 20260506164106 | 64 | 274 | 1.7 | 2.6 | 0.00 | 0.00 | 0.00 | 67 | 1018.7 |
| 20260506163601 | 64 | 281 | 1.7 | 4.3 | 0.00 | 0.00 | 0.00 | 66 | 1018.7 |
| 20260506163057 | 64 | 324 | 0.9 | 3.5 | 0.00 | 0.00 | 0.00 | 66 | 1018.6 |
| 20260506162553 | 64 | 292 | 1.7 | 3.5 | 0.00 | 0.00 | 0.00 | 65 | 1018.7 |
| 20260506162045 | 64 | 320 | 1.7 | 3.5 | 0.00 | 0.00 | 0.00 | 64 | 1018.6 |
| 20260506161543 | 64 | 277 | 1.7 | 3.5 | 0.00 | 0.00 | 0.00 | 65 | 1018.5 |
| 20260506161039 | 65 | 282 | 0.0 | 3.5 | 0.00 | 0.00 | 0.00 | 64 | 1018.6 |
| 20260506160537 | 65 | 297 | 0.0 | 4.3 | 0.00 | 0.00 | 0.00 | 63 | 1018.3 |
| 20260506160033 | 65 | 321 | 0.0 | 4.3 | 0.00 | 0.00 | 0.00 | 62 | 1018.5 |
| 20260506155532 | 65 | 242 | 0.9 | 3.5 | 0.00 | 0.00 | 0.00 | 62 | 1018.5 |
| 20260506153704 | 66 | 278 | 1.7 | 3.5 | 0.00 | 0.00 | 0.00 | 62 | 1018.1 |
| 20260506153201 | 66 | 299 | 4.3 | 4.3 | 0.00 | 0.00 | 0.00 | 61 | 1018.1 |
| 20260506152658 | 66 | 281 | 1.7 | 4.3 | 0.00 | 0.00 | 0.00 | 60 | 1018.2 |
| 20260506152155 | 67 | 243 | 1.7 | 3.5 | 0.00 | 0.00 | 0.00 | 61 | 1018.2 |
| 20260506151654 | 67 | 194 | 1.7 | 7.0 | 0.00 | 0.00 | 0.00 | 59 | 1018.1 |
| 20260506151150 | 67 | 328 | 3.5 | 9.6 | 0.00 | 0.00 | 0.00 | 59 | 1018.0 |
| 20260506150647 | 67 | 312 | 0.9 | 7.0 | 0.00 | 0.00 | 0.00 | 60 | 1018.1 |
| 20260506150144 | 67 | 258 | 2.6 | 5.2 | 0.00 | 0.00 | 0.00 | 59 | 1018.0 |
| 20260506145641 | 68 | 289 | 0.9 | 3.5 | 0.00 | 0.00 | 0.00 | 61 | 1018.0 |
| 20260506145138 | 68 | 342 | 2.6 | 5.2 | 0.00 | 0.00 | 0.00 | 61 | 1018.1 |
| 20260506144636 | 68 | 305 | 0.9 | 4.3 | 0.00 | 0.00 | 0.00 | 60 | 1018.1 |
| 20260506144132 | 68 | 283 | 1.7 | 2.6 | 0.00 | 0.00 | 0.00 | 58 | 1018.0 |
| 20260506143630 | 68 | 296 | 1.7 | 4.3 | 0.00 | 0.00 | 0.00 | 57 | 1018.1 |
| 20260506143127 | 69 | 289 | 2.6 | 5.2 | 0.00 | 0.00 | 0.00 | 57 | 1018.2 |
| 20260506142626 | 69 | 315 | 1.7 | 5.2 | 0.00 | 0.00 | 0.00 | 58 | 1018.1 |
| 20260506142123 | 69 | 305 | 2.6 | 4.3 | 0.00 | 0.00 | 0.00 | 56 | 1018.1 |
| 20260506141621 | 69 | 248 | 0.9 | 5.2 | 0.00 | 0.00 | 0.00 | 58 | 1018.1 |
| 20260506141119 | 69 | 346 | 1.7 | 4.3 | 0.00 | 0.00 | 0.00 | 57 | 1018.0 |